Temp
-7 -7 -7 -7 -7 -7 -7 -7 -6 -6 -6 -7 -7 -7 -7 -8 -8 -9 -9 -9 -9 -9 -9 -10 -10 -10 -10 -10 -10 -9 -9 -8 -8 -8 -8 -9 -9 -9 -10 -10 -9 -8 -8 -8 -8
-7 -7 -7 -7 -7 -7 -7 -7 -7 -7 -7 -7 -7 -7 -7 -8 -8 -9 -9 -9 -10 -10 -10 -10 -10 -10 -10 -10 -10 -10 -9 -9 -9 -8 -8 -8 -8 -11 -10 -10 -10 -9 -8 -9 -8
-7 -7 -7 -7 -8 -8 -8 -7 -7 -7 -7 -7 -7 -7 -8 -8 -9 -9 -10 -10 -11 -11 -11 -10 -11 -10 -10 -10 -11 -10 -9 -10 -11 -9 -8 -9 -8 -10 -10 -10 -10 -8 -8 -8 -8
-8 -8 -7 -7 -8 -8 -8 -8 -7 -7 -7 -7 -7 -8 -8 -8 -9 -10 -10 -11 -11 -11 -11 -11 -11 -11 -11 -10 -11 -11 -11 -12 -10 -10 -9 -9 -9 -10 -10 -10 -11 -10 -9 -7 -7
-8 -8 -8 -8 -8 -8 -8 -8 -8 -8 -8 -7 -8 -8 -8 -9 -10 -10 -11 -11 -11 -11 -11 -11 -12 -12 -11 -10 -11 -12 -11 -11 -11 -10 -10 -9 -9 -10 -10 -10 -10 -10 -9 -8 -8
-8 -8 -8 -8 -8 -8 -8 -8 -8 -8 -8 -8 -8 -8 -9 -9 -10 -11 -11 -11 -12 -12 -12 -12 -12 -12 -12 -12 -12 -12 -12 -12 -11 -10 -11 -10 -10 -10 -10 -10 -9 -9 -9 -8 -9
-8 -8 -8 -8 -8 -8 -8 -8 -8 -8 -8 -8 -8 -9 -9 -10 -10 -11 -11 -12 -12 -12 -12 -13 -13 -13 -12 -12 -12 -12 -13 -12 -10 -10 -10 -10 -9 -10 -10 -10 -9 -9 -10 -9 -9
-9 -9 -9 -9 -8 -8 -8 -8 -8 -8 -8 -8 -8 -9 -9 -10 -10 -11 -11 -12 -11 -12 -11 -12 -12 -11 -11 -11 -12 -11 -11 -10 -10 -10 -10 -10 -10 -10 -10 -10 -9 -9 -9 -9 -9
-9 -9 -9 -9 -9 -8 -8 -8 -8 -8 -9 -9 -9 -9 -10 -10 -11 -11 -11 -11 -11 -11 -12 -11 -11 -11 -12 -12 -12 -11 -11 -11 -10 -11 -11 -9 -9 -10 -9 -9 -9 -9 -9 -9 -9
-9 -9 -9 -9 -9 -9 -8 -8 -8 -9 -9 -9 -9 -9 -10 -10 -11 -11 -11 -11 -11 -12 -12 -12 -12 -12 -12 -12 -12 -11 -11 -11 -12 -10 -11 -11 -9 -10 -10 -9 -9 -9 -8 -9 -8
-9 -9 -9 -9 -9 -9 -9 -9 -9 -9 -9 -9 -9 -9 -10 -10 -11 -11 -11 -11 -11 -11 -11 -11 -12 -12 -12 -12 -12 -12 -13 -12 -12 -12 -12 -12 -11 -10 -10 -11 -10 -9 -9 -8 -8
-9 -9 -9 -9 -9 -9 -9 -9 -9 -9 -9 -10 -9 -10 -10 -10 -11 -11 -11 -11 -11 -12 -12 -12 -12 -12 -12 -13 -13 -12 -12 -12 -12 -13 -11 -11 -11 -10 -10 -10 -11 -11 -10 -10 -8
-10 -10 -10 -10 -10 -10 -10 -9 -9 -9 -9 -9 -10 -10 -11 -11 -11 -11 -11 -11 -11 -12 -12 -12 -13 -13 -13 -12 -13 -13 -12 -12 -12 -12 -12 -12 -11 -10 -10 -11 -10 -11 -11 -11 -10
-10 -10 -10 -10 -10 -10 -10 -10 -9 -10 -9 -10 -10 -10 -11 -11 -11 -11 -11 -11 -11 -11 -11 -14 -14 -14 -13 -13 -13 -13 -12 -12 -11 -11 -11 -11 -11 -11 -12 -11 -12 -12 -13 -12 -11
-10 -10 -10 -10 -10 -10 -10 -10 -10 -10 -10 -10 -10 -11 -11 -11 -11 -11 -12 -12 -11 -11 -12 -14 -13 -12 -13 -12 -12 -12 -11 -11 -11 -11 -11 -11 -11 -11 -12 -12 -13 -13 -13 -13 -13
-10 -10 -10 -10 -10 -11 -11 -11 -11 -11 -11 -11 -11 -11 -11 -10 -11 -11 -11 -12 -12 -12 -13 -12 -12 -12 -12 -12 -12 -12 -12 -12 -12 -12 -12 -12 -12 -13 -13 -13 -14 -14 -14 -14 -14
-11 -10 -10 -10 -11 -11 -11 -11 -11 -12 -13 -13 -11 -11 -12 -13 -12 -12 -12 -12 -12 -12 -12 -13 -13 -13 -13 -13 -12 -12 -12 -12 -12 -12 -13 -13 -13 -14 -15 -14 -14 -14 -14 -14 -14
-11 -11 -11 -11 -11 -11 -11 -12 -12 -12 -14 -13 -13 -12 -13 -13 -14 -12 -13 -11 -12 -12 -13 -14 -15 -13 -13 -13 -13 -13 -13 -12 -12 -12 -13 -14 -14 -14 -14 -14 -14 -14 -14 -14 -15
-12 -12 -12 -12 -12 -12 -12 -12 -12 -12 -12 -12 -13 -13 -14 -14 -13 -13 -13 -12 -13 -13 -13 -14 -14 -13 -13 -13 -13 -14 -13 -13 -13 -13 -13 -15 -14 -15 -14 -14 -15 -15 -15 -15 -15
-12 -12 -12 -12 -12 -12 -12 -13 -13 -12 -13 -13 -14 -13 -14 -14 -13 -13 -13 -12 -13 -13 -13 -13 -14 -14 -13 -14 -14 -13 -13 -14 -14 -13 -13 -13 -15 -15 -15 -15 -14 -15 -14 -14 -14
-12 -12 -12 -12 -12 -12 -13 -13 -13 -12 -13 -13 -13 -13 -14 -13 -13 -14 -14 -12 -14 -13 -13 -13 -13 -14 -14 -14 -13 -13 -13 -14 -14 -14 -14 -13 -14 -16 -16 -16 -15 -15 -15 -15 -15
-13 -12 -12 -13 -13 -13 -13 -13 -13 -12 -13 -13 -13 -13 -13 -13 -14 -13 -13 -13 -14 -13 -14 -14 -14 -14 -14 -15 -15 -14 -15 -14 -14 -15 -16 -15 -15 -15 -16 -16 -16 -16 -16 -16 -16
-13 -13 -13 -13 -13 -13 -13 -13 -13 -13 -13 -13 -13 -13 -13 -13 -13 -14 -14 -13 -14 -14 -14 -14 -14 -14 -14 -15 -15 -15 -15 -15 -15 -15 -15 -15 -15 -17 -16 -16 -16 -16 -15 -15 -16
-13 -13 -13 -13 -14 -14 -14 -14 -14 -14 -13 -14 -13 -14 -13 -14 -14 -14 -14 -13 -14 -15 -14 -14 -14 -14 -14 -15 -15 -15 -15 -16 -16 -16 -16 -16 -16 -16 -15 -15 -15 -16 -16 -17 -17
-13 -14 -14 -13 -13 -13 -14 -15 -14 -14 -14 -14 -14 -14 -14 -14 -14 -14 -14 -14 -14 -14 -15 -15 -15 -15 -15 -15 -15 -15 -16 -16 -16 -16 -16 -16 -17 -16 -16 -16 -17 -17 -17 -17 -17
-14 -14 -14 -14 -15 -15 -15 -15 -15 -14 -15 -14 -14 -14 -14 -14 -15 -15 -15 -15 -14 -14 -14 -15 -15 -15 -15 -15 -15 -16 -16 -16 -16 -16 -16 -16 -17 -17 -17 -17 -18 -18 -17 -17 -17
-14 -14 -14 -15 -16 -16 -15 -15 -15 -15 -15 -15 -15 -15 -14 -15 -14 -15 -15 -15 -15 -15 -15 -15 -15 -15 -15 -16 -16 -16 -16 -16 -16 -16 -16 -17 -17 -17 -17 -18 -18 -17 -17 -18 -17
Height
5850 5849 5849 5849 5849 5849 5849 5849 5849 5850 5850 5850 5850 5850 5849 5850 5850 5851 5852 5855 5855 5858 5860 5863 5866 5869 5871 5876 5881 5881 5888 5897 5898 5900 5897 5899 5902 5902 5904 5911 5913 5913 5908 5911 5909
5849 5848 5847 5847 5846 5846 5846 5846 5846 5846 5846 5846 5845 5845 5845 5844 5844 5845 5847 5845 5846 5848 5851 5854 5858 5861 5865 5869 5872 5874 5881 5889 5892 5894 5894 5895 5893 5897 5901 5904 5906 5903 5904 5906 5907
5847 5846 5845 5845 5845 5845 5844 5844 5844 5843 5843 5842 5841 5841 5840 5839 5840 5839 5837 5836 5837 5838 5842 5845 5851 5855 5860 5863 5868 5871 5876 5884 5884 5889 5890 5885 5889 5891 5895 5898 5895 5896 5896 5898 5906
5846 5845 5844 5843 5843 5843 5842 5842 5841 5841 5840 5839 5838 5836 5835 5835 5837 5832 5830 5830 5829 5831 5834 5837 5844 5848 5855 5859 5864 5866 5870 5874 5876 5883 5883 5883 5886 5886 5892 5895 5892 5891 5889 5890 5900
5845 5844 5843 5842 5841 5840 5840 5840 5839 5838 5837 5836 5835 5833 5832 5831 5830 5827 5825 5823 5822 5824 5828 5833 5838 5844 5850 5856 5860 5862 5866 5870 5875 5875 5877 5876 5882 5885 5888 5892 5894 5893 5893 5892 5896
5843 5842 5841 5840 5839 5838 5837 5837 5837 5836 5835 5834 5832 5830 5829 5828 5824 5823 5821 5819 5818 5820 5824 5829 5836 5841 5846 5851 5855 5861 5865 5865 5866 5874 5881 5878 5876 5878 5886 5877 5883 5886 5882 5888 5893
5841 5840 5838 5838 5837 5836 5835 5834 5834 5833 5832 5831 5830 5828 5826 5824 5822 5821 5819 5818 5819 5820 5823 5827 5832 5836 5842 5847 5853 5855 5856 5856 5867 5870 5876 5873 5875 5877 5879 5874 5879 5883 5881 5885 5886
5839 5838 5837 5836 5835 5834 5833 5832 5831 5831 5830 5829 5828 5826 5824 5822 5821 5820 5819 5819 5819 5820 5821 5825 5831 5837 5841 5844 5848 5851 5854 5860 5867 5865 5868 5868 5873 5870 5872 5873 5876 5878 5878 5879 5877
5839 5837 5836 5835 5834 5833 5832 5831 5829 5828 5827 5827 5826 5824 5822 5821 5819 5819 5819 5819 5820 5821 5823 5827 5833 5836 5840 5843 5846 5851 5856 5859 5861 5861 5860 5861 5867 5866 5870 5871 5873 5873 5872 5872 5872
5838 5837 5835 5834 5833 5832 5831 5829 5828 5827 5826 5825 5824 5824 5822 5821 5819 5818 5819 5820 5821 5822 5825 5828 5831 5834 5837 5839 5842 5848 5853 5852 5850 5851 5854 5854 5858 5860 5861 5864 5865 5864 5863 5860 5863
5837 5836 5834 5833 5832 5830 5829 5828 5829 5827 5825 5824 5823 5822 5820 5819 5818 5818 5818 5819 5821 5823 5826 5828 5831 5834 5836 5839 5844 5846 5846 5848 5851 5850 5850 5851 5853 5855 5857 5854 5852 5854 5853 5851 5853
5836 5834 5833 5832 5830 5829 5828 5827 5826 5825 5824 5822 5822 5820 5819 5819 5819 5818 5818 5819 5820 5821 5824 5827 5828 5829 5830 5832 5836 5837 5839 5845 5849 5843 5844 5843 5848 5852 5852 5851 5847 5842 5841 5842 5845
5834 5833 5831 5830 5829 5828 5827 5825 5825 5823 5823 5822 5820 5820 5819 5819 5818 5818 5818 5818 5819 5820 5822 5823 5823 5825 5828 5830 5833 5837 5838 5839 5841 5839 5838 5840 5839 5847 5846 5844 5841 5842 5837 5835 5834
5832 5831 5829 5828 5828 5826 5824 5824 5823 5822 5822 5822 5820 5820 5819 5818 5818 5817 5817 5818 5818 5818 5819 5821 5820 5822 5824 5828 5829 5832 5829 5830 5834 5838 5839 5838 5832 5837 5835 5833 5832 5831 5829 5826 5826
5829 5828 5827 5826 5825 5824 5823 5822 5820 5820 5820 5821 5820 5819 5818 5818 5817 5817 5816 5816 5816 5817 5818 5816 5815 5817 5820 5818 5822 5823 5824 5829 5831 5832 5831 5835 5829 5830 5826 5824 5823 5823 5822 5818 5818
5827 5825 5824 5823 5822 5821 5820 5819 5819 5819 5817 5818 5817 5817 5816 5815 5815 5815 5814 5814 5814 5814 5815 5815 5817 5817 5816 5816 5820 5819 5819 5820 5824 5826 5828 5826 5825 5826 5820 5820 5817 5814 5810 5804 5798
5822 5821 5820 5819 5819 5817 5817 5817 5818 5816 5817 5815 5814 5815 5813 5811 5811 5813 5811 5811 5811 5812 5811 5811 5809 5812 5811 5812 5810 5813 5814 5816 5820 5820 5820 5820 5824 5820 5814 5808 5809 5808 5802 5798 5796
5817 5817 5815 5815 5815 5814 5813 5814 5814 5812 5812 5813 5813 5813 5813 5812 5810 5810 5808 5808 5808 5809 5809 5809 5805 5807 5808 5808 5807 5808 5808 5809 5813 5813 5817 5818 5816 5814 5814 5809 5808 5805 5800 5794 5793
5811 5812 5812 5810 5810 5810 5810 5810 5810 5809 5809 5810 5810 5811 5809 5806 5808 5807 5807 5804 5806 5806 5806 5805 5802 5804 5805 5805 5805 5805 5804 5807 5808 5810 5813 5812 5808 5805 5804 5802 5799 5796 5794 5790 5783
5806 5806 5807 5806 5806 5806 5806 5806 5804 5805 5807 5808 5807 5808 5805 5802 5804 5804 5801 5803 5802 5803 5801 5802 5802 5800 5802 5801 5800 5801 5801 5802 5800 5803 5805 5809 5804 5797 5795 5788 5791 5784 5781 5781 5775
5799 5799 5802 5802 5801 5801 5801 5800 5798 5802 5802 5802 5802 5803 5802 5800 5802 5801 5797 5800 5799 5799 5797 5799 5799 5798 5799 5795 5794 5796 5796 5795 5795 5795 5794 5796 5801 5796 5789 5781 5777 5772 5767 5762 5759
5792 5791 5797 5795 5797 5795 5794 5795 5795 5795 5797 5797 5798 5799 5799 5800 5798 5797 5795 5797 5795 5794 5793 5793 5792 5794 5794 5792 5786 5790 5788 5789 5788 5789 5786 5783 5782 5790 5783 5770 5766 5762 5758 5755 5752
5786 5785 5787 5787 5789 5789 5788 5788 5789 5790 5792 5793 5794 5795 5796 5795 5796 5793 5790 5793 5790 5789 5789 5788 5788 5789 5790 5787 5783 5783 5783 5783 5780 5777 5776 5774 5774 5771 5764 5760 5755 5753 5751 5749 5745
5779 5779 5780 5782 5781 5782 5784 5783 5784 5785 5787 5789 5790 5791 5791 5791 5790 5790 5785 5786 5787 5785 5783 5783 5783 5782 5783 5781 5776 5777 5776 5774 5771 5768 5766 5765 5761 5751 5750 5750 5749 5746 5740 5733 5725
5773 5775 5773 5775 5776 5776 5778 5780 5779 5781 5783 5785 5786 5786 5788 5787 5785 5783 5781 5779 5779 5779 5779 5777 5777 5776 5774 5775 5773 5771 5769 5767 5764 5762 5757 5753 5746 5742 5742 5740 5734 5728 5721 5716 5710
5767 5768 5767 5769 5771 5771 5772 5773 5772 5779 5779 5781 5781 5782 5782 5783 5781 5779 5777 5775 5771 5773 5773 5773 5771 5770 5769 5767 5766 5764 5760 5759 5757 5754 5750 5746 5739 5735 5731 5727 5718 5711 5707 5700 5692
5758 5760 5761 5763 5764 5763 5764 5767 5771 5773 5774 5776 5778 5777 5777 5777 5775 5774 5773 5771 5769 5768 5766 5765 5765 5766 5765 5761 5759 5754 5752 5750 5749 5742 5740 5738 5733 5727 5723 5716 5708 5702 5694 5686 5681
Wind_Speed
8 8 8 8 8 10 12 13 13 14 15 17 18 18 20 24 28 29 30 31 31 31 36 35 32 27 34 39 36 42 39 35 43 36 34 21 24 16 22 26 25 28 28 29 30
9 9 8 7 7 6 6 7 9 11 12 15 17 19 20 23 26 31 30 32 30 30 32 38 36 32 30 38 40 45 42 37 43 48 33 28 30 16 19 16 27 34 35 34 35
10 9 9 8 7 6 7 7 8 9 11 13 16 18 20 21 22 22 23 27 28 28 32 40 39 36 33 36 36 40 42 38 38 49 39 29 35 28 22 24 22 39 43 43 37
10 9 9 9 8 9 8 9 10 10 11 13 14 16 18 20 16 18 25 24 24 25 32 34 38 36 34 32 35 37 31 31 50 49 43 32 31 35 28 28 23 33 36 45 41
11 10 10 9 8 9 10 11 11 11 12 13 14 15 16 16 13 19 20 24 25 25 31 28 30 34 31 29 31 26 23 23 17 52 42 42 35 36 36 28 22 29 37 44 38
11 11 10 9 9 8 9 10 10 10 11 12 12 13 14 12 17 14 17 12 11 15 26 30 26 31 29 26 26 21 10 25 25 37 28 41 56 42 35 38 40 30 45 40 32
11 11 9 8 8 8 8 9 10 10 10 11 12 11 12 11 10 9 11 4 6 12 21 26 29 33 28 27 26 23 24 27 15 14 20 24 31 45 48 54 36 29 29 47 49
10 9 8 6 7 8 8 8 8 9 10 10 10 9 9 9 7 6 7 1 5 10 16 22 24 22 19 26 31 32 30 21 11 18 13 19 15 16 21 21 19 23 31 32 27
9 9 8 7 7 8 8 7 6 7 8 8 8 7 7 7 4 5 5 3 5 8 14 16 13 11 15 24 27 23 18 9 1 9 12 15 17 17 22 20 24 27 28 30 31
8 8 7 7 7 8 7 6 6 6 6 6 5 6 5 5 3 3 8 6 6 9 13 16 16 16 19 26 26 21 15 5 18 16 16 21 19 24 20 18 23 24 28 31 32
9 9 8 8 8 8 8 8 7 5 6 5 4 4 5 4 2 1 5 11 10 10 11 12 12 10 8 13 21 19 16 14 10 8 15 22 29 22 24 32 32 31 33 37 37
11 10 9 8 8 9 9 8 7 5 6 5 5 5 5 4 3 1 2 6 13 14 15 14 16 15 20 12 19 26 30 20 17 18 25 32 30 27 29 33 26 29 33 29 40
10 10 10 10 9 8 9 7 6 4 3 2 5 5 5 4 3 2 1 4 7 11 13 14 15 18 19 23 23 22 25 24 30 32 33 35 38 32 29 24 28 25 29 35 38
12 11 11 10 9 8 8 9 7 6 3 4 6 6 8 6 4 3 3 4 9 11 14 13 15 19 20 20 25 27 35 35 33 33 32 33 39 28 17 24 23 25 29 38 40
12 12 12 12 10 9 9 9 9 8 6 8 6 7 7 7 6 4 4 6 8 8 11 23 23 22 20 24 27 30 35 29 29 28 29 23 28 16 13 14 25 29 34 40 41
13 14 14 13 12 10 9 10 8 8 5 9 12 9 11 7 6 7 6 5 8 10 12 19 18 17 18 21 17 22 23 25 21 18 18 11 11 6 14 22 23 28 36 40 44
15 15 15 15 14 12 10 10 8 8 6 13 13 11 12 14 18 7 9 5 6 8 14 17 20 16 20 19 24 23 23 22 18 12 7 8 10 7 19 21 28 34 40 44 47
17 16 14 15 15 12 11 10 10 11 4 16 15 14 10 10 13 11 11 8 3 4 6 9 15 10 4 10 18 15 16 19 15 19 15 9 10 17 19 24 29 33 38 43 43
19 15 14 12 12 12 12 11 13 18 15 8 11 7 8 17 11 11 13 14 6 8 10 12 19 13 7 9 11 11 14 10 10 15 23 9 11 18 25 29 32 34 37 39 45
21 19 15 14 14 12 11 13 17 18 16 13 15 13 15 16 13 13 17 13 11 9 13 12 13 16 11 12 14 14 15 13 16 16 18 23 25 23 26 31 35 35 45 48 55
24 24 20 15 13 13 12 16 21 12 14 16 18 15 19 21 13 16 23 15 11 12 16 13 13 18 12 18 20 16 16 18 20 22 25 27 24 23 28 32 41 46 51 58 61
24 26 18 20 15 15 18 19 20 16 16 15 15 15 14 13 15 17 21 16 15 17 17 15 17 15 16 15 25 18 22 22 23 23 27 32 37 25 34 45 51 56 57 60 61
23 25 21 22 21 21 22 22 22 17 15 14 15 13 10 12 12 16 22 17 18 19 18 18 17 15 14 19 24 24 25 24 27 31 31 32 32 29 37 43 47 49 51 53 56
24 23 25 20 23 24 21 24 18 19 15 15 13 13 13 13 16 17 23 20 16 19 21 20 20 21 19 22 28 26 27 28 30 32 33 33 34 42 44 45 46 48 49 51 55
24 22 22 23 24 25 24 22 22 19 16 16 15 16 14 15 20 22 25 25 19 16 17 22 22 22 23 21 24 26 28 28 30 32 36 38 43 48 48 48 49 48 51 56 57
25 24 25 22 19 22 23 24 27 15 18 17 16 17 17 17 20 22 20 19 22 18 16 14 17 19 19 22 23 25 28 30 33 35 38 41 45 47 47 46 48 53 56 56 58
23 23 24 19 20 26 27 24 20 20 19 19 17 18 18 20 20 18 17 17 19 20 21 20 19 19 19 24 26 30 33 36 36 39 39 39 40 42 43 45 48 52 53 53 54
Wind_Direction
324 309 300 295 281 269 267 272 275 275 276 273 272 274 273 267 261 257 255 257 254 250 247 245 239 234 225 219 217 222 211 210 213 209 217 215 185 202 199 236 233 236 259 265 275
328 323 311 303 299 295 294 291 288 287 287 281 276 279 283 279 269 263 266 260 256 254 244 238 234 224 224 224 223 232 206 202 217 219 220 204 195 188 210 206 229 237 245 246 254
331 325 319 302 290 291 298 306 309 307 306 301 290 288 293 290 286 277 266 262 259 251 239 231 230 228 221 223 224 232 224 201 210 218 227 191 200 191 202 169 206 232 238 241 249
331 329 322 312 289 279 287 298 305 313 316 313 305 296 298 299 295 270 273 270 261 251 240 233 224 221 218 223 226 236 244 240 207 212 235 235 207 200 212 186 205 222 240 246 236
317 321 324 317 309 287 280 289 299 307 311 315 314 306 305 308 286 291 280 277 265 244 223 228 221 218 220 223 221 239 242 254 247 219 232 246 237 209 215 217 225 257 255 261 271
315 312 315 314 312 303 288 283 293 304 313 317 321 313 311 305 288 294 297 295 261 221 217 219 222 215 215 216 220 221 230 268 265 234 245 262 252 248 236 231 226 237 255 248 264
323 318 316 308 312 306 298 287 289 300 310 318 323 319 316 309 294 297 309 296 247 219 208 210 207 209 206 213 212 200 231 234 259 242 257 263 246 251 254 257 256 250 270 256 259
340 340 332 322 322 322 309 303 297 297 306 315 322 322 318 318 298 280 306 249 315 237 220 205 201 202 214 215 215 217 219 246 275 271 257 258 251 239 254 251 251 264 263 271 276
346 353 353 341 334 337 336 322 316 308 307 312 322 329 324 325 298 247 253 255 251 208 196 196 195 219 226 222 220 223 225 247 241 293 270 251 235 260 250 257 253 258 254 257 255
342 345 351 352 344 337 329 328 337 334 324 323 337 341 353 332 303 252 223 226 209 210 203 206 216 222 222 223 215 215 227 278 304 268 255 283 265 274 289 284 281 269 270 276 273
332 329 335 339 341 336 326 319 316 320 320 329 350 351 9 356 337 236 212 224 217 199 205 227 236 249 254 236 240 242 228 222 274 290 265 262 263 288 293 294 289 284 282 282 287
333 325 316 326 333 335 330 320 315 306 309 325 322 360 6 18 9 315 225 209 213 213 219 214 216 203 190 219 224 220 230 205 219 257 245 250 258 281 283 287 274 272 285 279 281
327 331 325 312 316 322 327 324 321 330 305 334 10 4 351 347 349 14 258 232 208 190 186 196 208 201 215 218 223 237 245 227 223 238 252 269 284 287 289 277 276 278 279 278 277
314 323 325 320 310 309 314 308 304 322 295 23 7 1 355 346 344 311 262 232 217 212 188 171 243 242 243 236 233 232 245 250 255 267 277 281 285 293 277 271 277 283 277 275 279
306 309 318 318 315 298 298 298 301 299 300 312 337 344 337 337 352 345 281 252 256 261 205 203 235 246 244 243 234 238 251 263 266 268 269 283 283 299 284 270 261 256 256 266 276
300 302 305 308 307 303 297 293 295 295 314 302 311 322 309 299 341 326 300 274 252 236 228 241 253 261 259 256 260 253 252 251 256 264 275 278 286 297 252 261 273 278 284 288 291
286 291 297 299 294 294 288 280 272 258 292 284 300 316 334 305 320 333 312 276 271 245 241 247 265 251 259 258 254 255 261 261 256 242 261 225 169 234 281 278 280 283 286 289 292
284 285 287 290 285 282 281 268 252 250 220 258 282 295 288 298 306 319 297 312 321 283 255 254 252 285 250 258 266 261 257 256 243 211 192 204 218 238 251 261 267 272 275 279 282
277 279 283 284 285 277 276 266 251 235 261 309 283 283 314 298 298 299 279 302 273 272 263 249 259 291 276 263 263 271 266 275 241 215 200 234 250 241 245 249 259 258 264 267 270
273 271 271 280 275 275 267 249 249 249 251 260 258 251 197 247 277 288 289 303 294 273 265 266 266 276 278 270 261 260 270 267 268 261 241 223 232 271 273 277 271 269 269 271 275
267 267 263 269 269 263 250 249 257 274 250 247 248 255 238 255 285 277 278 309 306 284 276 287 272 276 281 276 277 279 277 277 277 278 277 267 245 242 266 274 272 270 269 274 277
266 263 258 268 266 254 241 245 265 272 245 248 252 252 253 257 262 270 279 296 280 285 285 278 272 268 277 275 275 276 278 278 278 275 273 277 278 275 261 260 263 268 269 273 280
266 264 258 252 260 260 257 250 248 256 245 248 248 251 252 270 276 279 287 287 280 285 281 282 283 279 276 267 272 277 280 288 288 287 286 281 283 280 266 270 275 277 283 289 294
260 260 264 251 251 251 251 246 256 241 239 237 241 248 265 280 280 283 287 291 285 278 282 281 285 285 281 279 290 294 293 292 291 289 290 289 289 281 284 286 291 294 296 291 287
267 258 268 261 263 256 252 246 260 232 234 231 239 255 275 279 288 292 294 302 300 287 274 285 285 286 287 285 278 281 283 281 280 286 289 291 289 290 295 300 301 298 290 291 295
267 256 263 260 246 241 234 232 243 240 237 232 252 267 278 293 291 292 296 303 304 307 302 291 286 289 292 292 295 289 279 280 283 285 285 290 293 298 301 301 295 293 296 294 292
267 257 255 238 230 231 234 238 239 237 236 248 254 268 285 289 297 288 289 296 301 307 312 309 299 297 295 295 297 291 291 288 289 290 292 295 294 291 291 291 293 294 292 292 295